Cloud_Cover
0 0 1 6 97 96 71 98 98 54 5 5 82 76 5 23 57 22 5 2 4 5 5 11 75 59 70 93 99 97 100 100
0 0 4 100 92 97 100 100 88 30 8 100 36 52 75 24 3 5 5 5 4 0 4 2 67 81 98 100 100 100 100 100
0 1 92 89 99 100 100 100 70 72 100 100 63 9 2 5 5 5 5 5 5 0 5 4 72 90 100 100 100 100 100 100
1 70 96 100 100 100 100 96 96 100 100 50 4 2 3 0 0 5 5 5 5 5 5 73 74 100 100 100 100 100 100 100
86 100 100 100 100 100 100 89 100 95 7 5 5 0 0 0 5 4 5 5 1 5 5 67 96 100 100 100 100 100 100 100
100 100 100 100 100 100 89 100 79 5 5 1 0 0 0 0 0 1 0 0 0 0 5 54 94 87 100 100 100 100 100 100
100 100 100 100 96 97 100 73 7 5 0 0 0 4 5 3 0 0 0 0 0 0 5 5 80 95 100 100 100 100 100 100
100 100 100 100 100 100 64 40 4 0 0 0 3 5 5 0 0 0 0 0 0 0 5 10 92 100 100 100 100 100 100 100
100 95 100 100 96 88 37 1 0 0 0 1 5 5 0 0 2 5 2 0 0 2 5 21 92 100 100 100 100 100 100 100
100 100 100 88 95 55 0 0 0 0 0 4 0 0 4 5 5 5 0 0 0 4 5 35 96 100 100 100 100 100 100 100
100 100 86 100 43 0 0 0 0 0 0 0 0 0 3 5 5 4 0 0 3 5 5 24 97 100 100 100 100 100 100 100
100 100 100 20 0 0 0 0 0 0 0 0 0 0 2 5 5 0 0 0 1 5 5 92 100 100 100 100 100 100 100 100
100 100 5 0 0 0 0 0 0 0 0 0 0 0 0 1 0 0 0 0 3 43 68 100 100 100 100 100 100 100 100 100
96 5 0 0 0 0 0 0 0 0 0 0 0 0 0 0 0 0 0 4 75 100 100 100 99 100 100 100 100 100 100 100
5 1 0 0 0 0 0 0 0 0 0 0 0 0 0 0 0 0 0 91 99 99 99 100 100 100 100 100 100 100 100 100
4 0 0 0 0 0 0 0 0 0 0 0 0 0 0 0 0 0 17 100 100 94 100 100 100 100 100 100 100 100 100 100
0 0 0 0 0 0 0 0 0 0 0 0 0 0 0 0 0 0 100 100 100 100 66 100 100 100 100 100 100 100 100 100
0 0 0 0 0 0 0 0 0 0 0 0 0 0 0 0 0 24 100 98 99 100 82 100 99 100 100 100 100 100 100 100
0 0 0 0 0 0 0 0 0 0 0 0 0 0 0 0 0 68 100 100 21 41 97 100 100 100 100 100 100 100 100 100